Location: Cactus School
(34.5700°N, 118.0931°W)
Time: 06:02:28
(UTC-08:00)

Tiangong 1 - Pass Details

Date: 10 November 2017
Orbit: 285 x 309 km, 42.8° (Epoch: 19 November)

Event Time Altitude Azimuth Distance (km) Brightness Sun altitude
Exits shadow 04:34:38 12° 42° (NE) 1,055 3.7 -22.2°
Drops below altitude 10° 04:35:00 10° 49° (NE) 1,143 4.0 -22.1°
Sets 04:37:28 0° 74° (ENE) 1,969 5.8 -21.6°
